Theta_e
310 310 310 310 309 308 308 309 309 309 310 311 313 314 314 314 314 311 320 328 318 312 313 319 318 315 314 308 304 307 308 308 305 302 300 300 298 298 298 299 296 294 292 290 291 288 286 300 299 292 295 296 296 296
310 309 309 309 309 308 308 308 309 309 310 310 312 313 314 315 314 314 318 322 321 315 313 321 319 318 317 317 310 308 305 306 307 304 301 300 298 298 294 291 301 292 295 293 292 290 298 302 297 299 298 294 294 295
311 310 309 309 309 308 308 308 308 309 310 310 311 312 314 314 314 313 318 318 318 313 312 313 313 318 319 317 317 309 308 309 307 310 304 301 297 298 294 295 297 300 300 293 294 298 301 300 298 297 297 295 297 297
310 310 309 309 309 308 308 308 308 309 309 310 311 312 313 314 313 314 317 317 317 312 306 309 318 315 321 320 322 316 313 313 310 308 303 300 298 301 296 297 296 299 300 296 294 298 301 300 299 298 299 299 300 300
309 309 309 309 309 308 307 307 308 308 309 310 311 313 313 313 312 315 317 313 317 314 306 307 313 317 316 316 315 314 312 308 304 303 299 297 300 299 297 296 294 298 297 293 292 298 297 296 299 301 299 299 300 299
309 309 309 309 308 308 307 307 308 308 309 310 312 312 312 312 311 315 311 314 311 316 309 303 311 313 315 314 313 311 309 306 305 304 301 302 304 299 294 291 299 301 300 299 298 300 298 300 301 302 300 300 301 300
309 309 309 309 308 307 307 307 308 309 309 310 310 311 311 310 310 311 309 313 310 316 310 304 305 312 315 311 310 309 308 307 306 302 301 301 301 301 295 292 300 301 302 301 301 300 296 298 296 299 300 301 302 301
308 308 309 308 307 307 307 307 308 309 309 309 310 311 311 311 310 308 312 311 313 315 311 302 302 307 311 306 304 307 305 304 305 303 303 303 302 299 293 298 301 302 302 302 301 300 297 298 299 299 299 299 298 298
308 308 308 307 306 306 307 307 308 308 309 310 311 312 313 310 306 308 316 315 317 313 305 302 301 300 309 306 305 306 305 301 305 302 303 302 298 294 298 299 299 301 300 300 300 299 299 298 298 297 297 296 295 296
308 308 308 307 306 307 307 308 308 308 309 311 317 309 303 308 316 317 312 308 308 307 308 302 303 302 306 303 302 305 303 301 297 301 304 298 295 301 302 300 302 304 304 301 296 296 296 296 297 296 295 297 297 297
308 308 307 306 307 307 308 308 308 308 312 309 306 306 310 314 311 309 303 303 303 301 304 304 304 305 308 303 303 305 304 305 299 300 300 295 293 299 302 301 304 304 303 300 300 299 298 297 296 296 296 298 298 298
308 306 306 306 306 307 308 308 307 308 306 306 305 307 309 306 302 302 298 302 301 300 305 304 304 305 304 308 303 301 300 303 299 304 299 293 299 302 302 303 305 305 300 300 300 299 298 298 298 297 297 297 297 298
306 305 306 306 306 307 308 307 307 307 306 310 305 303 300 301 295 299 298 299 299 303 304 303 303 306 304 304 305 301 299 298 304 298 296 298 302 303 303 306 307 301 300 300 299 300 300 299 299 297 297 299 298 298
305 305 306 306 306 307 307 307 308 308 314 307 302 292 298 296 297 298 299 300 303 303 302 303 301 302 303 301 300 302 300 303 297 294 295 300 302 303 305 308 301 299 299 299 299 300 300 299 298 298 298 299 298 296
305 305 305 306 307 307 307 308 309 314 308 303 302 292 297 300 300 301 302 301 303 304 302 302 301 300 299 298 299 298 297 295 297 296 298 302 304 305 305 302 300 299 298 298 298 299 299 299 298 297 296 297 297 295
305 306 307 306 306 306 306 311 315 311 306 304 301 298 298 299 299 300 301 300 303 304 302 303 300 296 297 297 298 296 296 295 297 300 302 304 304 304 300 301 300 300 299 298 298 299 299 299 298 296 296 297 295 294
305 305 307 305 305 305 309 312 312 306 303 302 299 299 299 298 299 299 300 301 304 303 300 300 297 295 298 296 296 299 298 300 302 303 303 303 302 300 301 301 302 302 299 298 298 298 298 298 298 295 295 296 294 294
301 303 305 305 304 305 312 311 310 306 301 301 296 297 298 299 300 299 300 301 302 301 300 298 300 297 297 296 296 299 301 303 304 304 304 302 301 302 303 301 302 302 299 299 299 298 298 297 296 294 294 294 293 292
301 302 304 305 303 306 310 307 308 302 300 300 298 298 297 297 299 300 301 302 302 304 301 299 299 297 296 299 300 301 302 304 303 303 303 303 302 303 304 303 302 300 299 298 297 296 296 297 297 294 294 292 291 291
304 305 305 306 306 307 305 303 308 304 301 300 300 298 299 298 300 301 301 301 300 300 299 299 298 299 300 301 303 303 304 304 303 301 301 302 303 303 302 301 300 299 299 299 298 295 297 296 295 294 293 292 291 292
306 304 307 309 310 307 303 302 303 302 302 301 300 299 298 299 299 299 300 300 300 297 298 301 300 301 302 301 302 301 302 304 303 303 303 302 304 304 303 303 302 301 300 298 297 296 294 296 297 295 294 293 293 293
304 306 304 308 305 302 301 303 301 301 301 301 298 298 298 298 299 299 298 297 297 300 301 301 301 301 299 300 302 302 302 301 300 298 297 298 302 302 303 305 303 302 301 301 299 298 297 296 294 295 294 295 293 294
304 304 305 306 300 294 295 302 301 301 298 298 298 297 297 296 300 301 296 297 300 301 303 303 303 302 301 302 303 303 303 301 300 300 301 301 301 301 301 301 300 301 302 303 303 302 299 296 294 295 295 294 293 293
303 301 299 297 297 293 302 299 301 299 298 296 296 296 296 299 299 297 295 296 299 301 301 302 303 301 301 301 300 300 302 301 302 303 304 304 304 306 305 304 306 306 304 304 302 300 299 298 294 294 294 294 293 293
291 291 296 287 296 298 298 298 298 297 296 298 296 296 297 298 295 295 294 297 300 300 300 300 300 300 300 300 301 302 303 302 301 301 303 304 304 302 301 303 303 302 303 300 300 299 299 297 295 295 294 294 293 293
284 294 292 297 297 297 297 295 295 295 296 296 296 297 297 295 294 293 297 299 300 301 302 301 300 299 299 299 299 300 301 302 302 301 303 303 303 302 301 300 300 303 305 303 300 300 299 299 298 297 297 295 290 292
288 295 297 299 298 298 297 298 297 295 295 294 295 296 295 292 293 298 301 302 301 303 303 303 302 301 301 300 301 302 302 301 302 303 304 305 304 304 304 302 301 304 304 304 302 300 300 301 301 299 297 295 295 295
297 297 295 297 297 297 296 296 296 295 296 298 297 295 295 296 295 300 302 304 304 304 303 303 303 303 302 302 302 301 301 300 303 304 303 303 303 304 304 305 306 297 302 304 304 303 301 300 299 299 299 297 297 297
295 297 297 295 297 296 296 296 296 299 300 298 295 295 296 300 303 302 303 304 303 302 301 301 302 301 301 301 300 300 299 301 301 298 299 298 298 300 302 302 303 304 305 304 294 294 301 300 299 299 299 299 299 298
296 298 295 296 295 293 297 300 298 301 301 300 300 298 298 299 301 303 303 301 300 300 301 301 301 301 301 300 300 301 302 302 303 300 297 297 298 301 301 302 302 303 303 302 302 302 288 295 293 295 297 298 297 296
297 296 295 295 294 296 298 299 299 299 299 298 298 296 296 297 300 302 301 302 302 301 301 302 302 302 301 300 299 299 299 301 302 303 304 302 301 301 301 301 302 302 302 302 302 301 300 299 300 300 299 298 297 294
295 294 293 292 292 295 297 295 295 294 294 294 294 295 296 295 295 297 301 302 300 299 296 298 299 300 301 301 302 301 292 302 302 303 303 301 301 302 302 301 301 301 301 300 300 299 298 298 298 297 297 298 298 297
293 293 293 293 292 293 294 294 293 294 293 293 294 294 294 294 293 297 302 303 300 300 301 302 303 303 302 303 303 303 298 304 300 292 290 289 288 291 295 300 300 301 301 300 300 300 301 300 300 298 299 299 298 298
Wind_Speed
11 12 14 16 17 18 19 20 21 21 22 22 21 21 20 18 13 2 2 2 4 4 3 4 5 3 1 2 5 4 5 4 4 4 3 3 3 1 5 2 2 3 2 1 2 2 3 4 3 6 6 2 3 4
11 13 14 16 17 18 19 20 20 21 22 21 22 22 20 20 18 6 3 3 2 5 4 2 0 2 1 6 6 1 4 4 5 5 1 3 3 3 3 2 4 2 3 5 3 5 6 3 6 4 7 5 3 3
11 13 14 16 17 19 19 20 20 21 21 21 21 21 19 18 18 10 2 3 5 5 5 6 5 7 3 3 3 5 3 3 2 3 5 3 6 3 3 2 3 2 3 4 3 2 5 5 3 4 6 5 5 5
11 13 15 16 18 19 20 20 21 21 21 21 20 20 18 17 16 9 3 3 4 4 5 6 4 4 7 3 3 3 6 5 6 4 4 4 4 2 2 3 4 3 3 5 1 0 3 2 5 5 7 6 4 5
11 13 15 17 18 20 21 21 21 21 21 21 20 19 17 15 13 2 2 2 1 6 5 3 6 5 6 5 10 6 7 6 4 4 5 2 3 5 2 3 2 1 6 4 5 6 5 5 5 6 6 5 7 4
12 14 16 17 19 20 21 21 21 22 21 21 20 18 15 14 11 3 5 3 4 3 6 2 4 5 6 7 10 9 5 5 4 5 3 2 1 5 4 2 3 1 3 5 4 5 4 5 1 5 1 4 6 6
12 14 16 18 20 21 22 22 22 22 22 21 19 17 14 11 2 4 6 4 4 2 5 3 4 4 4 5 4 5 5 3 4 3 4 3 2 5 4 4 6 5 5 3 2 4 3 4 2 4 7 6 6 5
13 15 17 19 20 21 22 23 23 23 22 20 17 14 11 5 1 3 2 2 1 5 5 4 3 4 3 2 3 3 4 4 6 3 2 3 2 3 2 3 5 4 5 4 4 4 5 6 5 5 5 4 5 4
13 15 18 20 21 21 23 23 24 24 23 19 13 9 2 6 4 4 6 2 1 5 4 3 5 4 3 1 1 3 3 4 2 3 2 4 2 1 6 8 7 6 5 6 5 7 7 6 6 5 4 4 3 1
14 16 18 20 21 22 22 23 26 25 23 13 6 5 4 3 7 6 8 5 6 5 4 3 1 2 4 2 2 1 2 3 2 3 3 4 2 3 5 7 7 7 7 7 6 5 4 4 3 3 2 1 2 1
15 17 19 20 21 21 20 21 25 25 7 6 5 1 4 10 5 5 3 3 3 4 3 1 3 3 1 3 4 2 2 2 3 3 4 1 2 4 6 7 6 5 4 4 6 6 6 7 6 4 2 2 0 2
16 18 20 20 20 19 19 19 17 6 2 1 2 3 3 6 5 4 2 4 4 1 4 2 2 3 2 2 3 1 2 1 3 3 4 1 4 6 8 6 6 5 7 8 6 8 7 7 6 5 3 2 3 4
17 19 20 20 20 18 20 18 10 7 1 1 3 5 5 3 10 4 4 4 4 5 5 5 3 2 3 4 3 1 3 2 2 3 3 4 2 5 7 6 4 6 7 9 6 6 7 6 5 3 2 4 4 4
18 19 20 19 16 20 20 18 10 3 2 4 4 7 3 4 2 1 2 2 4 2 4 2 2 2 2 3 1 1 0 3 2 1 4 3 6 7 6 4 7 8 7 8 8 7 7 6 4 2 3 4 2 4
19 20 18 10 18 19 20 16 4 2 3 3 4 2 3 3 2 2 2 2 3 2 3 3 2 2 3 2 2 3 1 2 2 3 3 4 6 6 6 5 9 8 7 7 6 6 7 6 4 3 4 3 3 4
19 16 4 13 19 22 18 8 2 2 4 3 4 3 2 3 5 4 3 3 2 4 1 3 2 3 2 0 1 2 2 3 3 3 3 4 6 6 6 7 7 7 7 7 6 6 5 5 6 5 3 4 4 3
13 2 9 17 20 21 10 4 4 4 2 2 1 1 2 2 3 3 1 3 2 3 1 1 3 1 2 3 2 1 2 3 4 2 2 5 7 7 7 6 6 7 7 7 5 5 5 4 3 2 4 4 5 4
3 6 15 15 13 7 4 4 3 2 3 1 2 3 1 2 1 3 3 2 2 1 2 0 2 4 2 1 3 3 3 2 1 2 3 3 5 6 6 7 6 7 7 7 7 5 4 4 5 5 6 5 4 5
8 11 19 15 4 2 3 4 4 2 1 1 2 1 1 3 3 3 3 3 2 1 3 3 5 1 2 3 4 3 3 3 3 2 1 2 5 7 7 6 6 6 7 6 6 5 5 7 6 5 5 4 4 4
12 13 8 6 3 2 4 4 2 2 1 3 1 2 1 2 3 3 3 3 2 3 5 3 3 4 4 3 4 3 3 3 3 1 2 3 4 5 7 6 5 6 5 5 5 5 3 4 4 5 5 5 5 6
8 6 7 2 3 4 2 2 3 1 2 1 2 1 3 3 3 3 3 2 4 1 2 3 3 1 1 2 1 1 2 4 5 5 5 4 5 5 5 5 5 3 4 4 4 5 5 6 7 5 5 6 7 6
3 7 3 4 4 5 2 1 2 2 1 2 3 1 1 2 3 3 1 3 1 3 3 3 3 3 2 2 3 3 3 3 2 2 2 1 2 2 4 6 3 5 5 7 5 7 7 7 5 5 6 8 6 5
6 5 3 4 2 4 6 2 2 2 1 3 3 2 2 2 3 2 2 2 3 2 3 3 4 4 4 2 2 2 0 3 4 5 5 5 5 3 3 4 2 4 5 7 6 7 7 9 8 7 6 5 4 5
2 3 3 2 1 3 3 2 1 2 2 1 1 2 1 2 2 4 2 3 3 3 1 1 2 2 4 4 2 3 4 3 4 5 4 4 3 3 4 4 4 5 7 6 5 5 6 6 7 6 6 6 6 6
5 5 4 5 2 2 2 2 2 2 2 2 1 2 2 2 2 2 2 4 3 2 1 2 2 1 2 2 3 4 4 3 3 4 4 5 3 1 3 5 6 6 3 3 5 4 6 4 5 6 6 7 8 8
2 2 3 1 2 1 2 2 2 2 2 1 2 2 2 2 1 2 2 3 2 2 2 3 4 1 3 5 4 3 5 3 2 3 5 5 6 5 5 5 5 8 5 4 2 5 7 6 7 9 10 11 9 8
3 2 2 2 1 1 2 2 2 0 2 2 2 2 1 1 1 2 3 2 2 3 3 3 4 5 5 5 5 6 6 3 7 5 4 4 3 2 4 5 7 7 3 5 5 6 8 8 7 9 10 7 8 9
3 1 2 5 3 1 1 1 2 2 2 3 2 4 2 1 4 3 5 4 5 4 5 5 5 5 5 6 5 4 5 3 2 3 3 4 4 5 7 7 8 13 8 6 9 7 7 9 8 9 10 11 11 9
2 2 1 3 3 2 2 1 1 3 2 2 3 2 3 3 3 3 4 4 1 1 4 5 6 2 4 4 5 5 4 3 4 4 8 6 4 7 4 4 5 6 6 7 8 10 7 5 6 8 11 10 11 9
3 1 2 1 1 2 3 3 2 3 3 4 3 2 3 4 5 2 3 3 3 5 5 5 5 2 5 4 6 7 4 5 6 6 6 7 7 6 5 5 5 6 5 5 6 5 2 2 1 4 5 5 5 6
0 3 2 1 2 4 4 3 3 2 2 2 2 4 5 4 5 4 2 4 4 3 2 4 4 4 4 5 4 4 6 5 8 11 10 6 5 5 6 6 6 5 5 5 4 4 5 4 5 6 6 7 8 6
3 2 1 2 4 5 4 3 3 2 3 2 4 2 3 2 3 4 8 8 8 8 8 7 6 7 5 5 5 5 7 6 6 6 8 5 6 7 6 5 5 4 5 5 5 5 5 6 6 6 7 9 8 8
1 2 1 1 4 5 4 3 4 5 3 3 6 5 5 6 3 1 2 5 5 7 9 9 8 8 9 11 12 10 10 9 14 11 11 9 9 8 6 5 5 5 6 5 6 5 7 7 5 4 2 2 2 3
Wind_Direction
342 339 338 337 341 335 335 335 341 339 337 335 333 331 330 337 344 297 259 236 115 105 308 20 18 67 59 101 138 236 43 343 42 83 136 191 109 107 86 49 84 115 106 76 66 122 237 327 1 93 211 247 212 226
339 337 338 335 338 332 334 336 335 335 335 333 332 330 332 336 344 336 48 333 55 93 172 286 118 227 65 188 134 47 185 174 187 95 89 106 84 63 129 161 19 35 166 158 154 197 218 299 137 186 170 190 233 240
337 339 336 333 333 331 332 334 331 331 332 331 329 327 328 337 345 0 60 345 46 62 4 35 346 327 29 50 145 128 277 179 127 151 146 135 89 111 110 197 103 70 142 100 86 251 180 165 213 194 205 219 225 233
334 337 332 331 331 330 329 329 326 328 329 327 325 322 325 334 339 345 68 328 85 110 100 289 339 338 299 328 140 171 141 69 96 68 83 86 106 88 145 147 112 203 72 131 10 337 117 187 232 215 230 240 244 252
331 333 330 329 329 328 325 326 323 325 326 323 320 318 321 327 333 329 74 14 196 121 153 257 315 330 4 49 63 52 95 91 62 59 63 101 117 96 41 78 19 182 163 144 208 208 155 233 242 216 219 260 264 324
331 328 328 327 329 323 322 322 322 323 322 319 315 313 316 317 323 79 23 345 358 93 93 59 282 348 359 37 46 41 46 69 82 103 116 90 94 98 100 123 246 222 150 159 178 188 201 217 146 281 236 30 57 70
324 326 326 327 325 320 322 321 320 322 321 315 310 304 306 310 5 118 176 224 6 70 85 37 339 328 328 31 26 20 23 55 85 112 68 116 51 80 104 153 205 204 152 124 85 105 62 58 143 75 89 67 61 59
323 323 326 325 320 320 322 319 320 325 320 311 301 298 302 293 3 24 322 206 104 89 74 107 269 0 11 16 10 4 35 28 14 123 63 85 23 68 102 214 168 181 142 75 39 122 121 125 101 82 75 71 54 36
319 325 324 321 318 322 321 320 325 325 322 314 303 294 32 32 27 267 339 153 99 121 121 92 132 228 1 30 358 14 59 48 295 92 79 83 334 173 198 161 166 174 145 163 134 86 106 113 98 79 86 59 73 28
321 321 320 318 320 321 320 324 326 327 319 309 38 42 0 275 306 329 8 20 16 351 40 98 111 201 97 38 321 76 45 149 104 256 93 66 266 281 175 174 167 163 154 170 130 121 124 106 133 134 108 177 151 190
317 319 317 318 320 320 320 327 327 330 11 36 25 292 264 316 44 34 34 66 327 25 5 218 178 151 292 135 201 184 183 160 117 238 114 128 267 223 184 190 184 172 160 191 135 134 147 153 157 158 187 165 205 263
317 315 315 317 318 315 319 326 331 7 61 267 271 275 311 30 34 65 351 348 37 10 330 34 289 176 271 149 103 307 139 55 192 147 87 222 246 186 169 192 190 163 145 124 131 138 145 142 163 173 178 195 266 273
313 312 314 315 313 312 318 320 316 262 310 226 41 37 39 334 39 48 9 341 7 335 345 340 331 358 356 36 75 133 77 240 102 54 219 227 224 169 177 178 168 130 148 126 133 140 147 160 179 143 178 225 269 287
310 312 314 310 308 320 319 321 328 83 53 63 45 358 75 350 25 232 175 207 252 282 323 280 304 46 336 43 98 130 113 107 78 164 247 246 202 179 172 159 122 145 156 142 153 161 166 176 188 180 221 231 245 291
314 313 310 301 325 325 325 326 329 161 83 55 57 10 31 272 289 288 258 54 309 279 333 5 20 71 349 78 16 59 134 57 220 233 235 215 182 160 163 152 150 154 160 161 164 167 185 193 210 257 276 240 239 295
319 312 280 332 335 329 326 326 24 48 47 53 51 44 356 50 337 5 0 319 290 330 47 33 45 43 331 14 42 2 99 222 249 224 234 150 160 162 160 152 160 161 171 174 181 193 183 203 219 231 274 228 261 285
320 291 316 338 334 319 331 37 22 40 81 57 352 22 122 155 204 252 244 266 331 46 33 49 50 312 336 50 10 350 195 223 217 227 190 175 164 171 159 159 175 176 176 189 197 198 211 226 176 176 234 242 254 275
266 292 322 333 342 332 339 37 55 54 58 336 97 270 237 187 230 287 258 283 39 24 85 50 142 49 49 16 294 253 249 272 326 170 168 157 149 164 170 183 192 190 196 200 209 213 218 212 204 229 225 223 255 275
267 295 299 309 305 23 14 342 65 66 268 272 293 297 229 250 239 261 269 295 230 207 101 48 66 83 259 238 237 249 220 202 180 196 233 214 185 177 193 202 199 199 198 206 212 220 223 224 220 210 200 186 224 246
286 275 293 311 174 41 13 334 58 85 353 266 332 311 228 235 290 307 326 14 39 58 37 60 192 213 195 243 215 216 195 147 115 84 286 265 228 215 201 189 198 202 215 237 242 220 243 261 241 213 190 199 208 244
344 320 346 38 18 60 122 342 348 209 301 346 293 30 293 353 4 343 317 349 54 106 214 216 215 246 245 271 272 151 151 156 181 183 208 240 230 206 232 235 227 222 218 237 239 257 223 222 227 195 194 216 224 234
284 344 351 349 43 353 31 255 178 278 38 264 346 28 3 341 305 278 280 43 216 232 183 150 191 198 215 228 215 211 202 186 218 245 264 190 210 204 243 240 190 232 224 233 222 234 229 235 215 201 206 232 220 240
336 19 358 17 6 35 265 38 27 324 25 302 3 1 319 292 251 350 21 235 257 248 193 172 196 186 204 251 216 341 257 224 246 241 245 245 255 255 287 298 204 231 253 264 225 235 236 235 207 208 213 224 223 245
345 40 23 346 109 267 335 319 314 314 324 349 348 285 267 250 335 50 287 285 279 310 6 118 61 56 2 11 349 277 274 225 269 281 242 209 251 257 244 229 246 233 216 225 251 242 245 233 215 194 203 217 225 232
41 321 78 313 253 337 298 299 286 14 265 246 292 315 279 55 34 11 321 287 328 342 350 32 59 129 174 258 292 269 265 214 250 278 280 211 206 174 233 236 245 244 231 232 236 230 251 226 194 201 207 213 230 235
75 261 129 257 290 160 280 319 284 277 273 283 279 313 32 72 43 322 273 298 306 267 237 186 168 181 262 222 239 260 263 199 196 252 269 195 209 191 216 235 264 280 201 227 322 297 281 231 207 207 223 230 225 229
347 315 274 231 232 300 336 307 278 345 302 316 324 349 27 286 9 275 279 257 235 246 225 224 202 207 225 251 251 253 261 240 219 232 274 254 254 247 222 233 254 248 224 238 229 223 239 240 223 224 229 236 225 221
247 302 352 304 348 98 259 309 321 354 327 313 39 22 357 253 227 242 222 235 222 235 237 239 223 219 230 238 251 281 297 302 351 337 336 312 258 254 246 246 251 268 271 249 243 233 228 233 224 223 227 232 241 236
281 272 49 2 338 347 14 87 287 255 217 117 158 245 245 231 222 228 250 232 310 316 293 293 291 302 289 278 269 253 235 209 168 243 260 260 300 291 245 236 251 254 255 256 255 231 222 229 267 247 233 231 238 245
278 156 89 351 22 288 257 195 234 247 213 195 191 313 318 281 252 227 246 262 238 242 239 227 237 234 261 272 285 298 274 210 193 189 212 230 232 241 252 256 268 280 285 276 275 283 229 288 219 222 225 233 237 249
327 49 34 47 258 256 240 275 294 296 292 256 216 189 238 269 302 272 298 298 274 270 284 292 286 242 230 261 231 254 280 260 224 235 238 250 258 261 263 262 250 248 251 248 249 249 259 255 245 263 280 278 274 258
16 67 123 272 279 297 350 22 288 288 283 291 272 221 286 23 273 26 349 360 25 13 342 331 311 289 294 292 282 269 233 279 287 265 261 243 252 256 261 271 284 285 281 278 274 267 261 255 259 258 253 257 257 261
331 341 343 346 341 335 296 3 285 279 278 262 256 224 226 190 151 118 339 30 37 5 351 340 339 351 11 27 16 7 3 2 358 358 350 0 352 344 331 322 310 290 267 247 241 229 229 231 232 249 293 329 347 339